STARLINK-11282, 60992

Orbit data source: Space-Track

STARLINK-11282, 60992 is a payload satellite owned by SpaceX/Seattle (US) in LEO that was launched on Thu, 05 Sep 2024 UTC via an FALCON 9 launch vehicle from the Air Force Eastern Test Range (AFETR). Payload-class satellites include a variety of spacecraft equipped with specific instruments for various scientific and technological missions. These include communications satellites like Starlink; space stations such as the ISS; scientific satellites like the Hubble; Earth observation satellites from companies like Planet Labs, Umbra, and HawkEye 360; GPS; miniature CubeSats for education and research; and military/defense satellites.

Loading next visibility...
Identifier
60992, 2024-158C
Orbit
LEO
Country
Flag of USUS
Related business
Manufacturer
SpaceX/Seattle
Mission
Operational Commercial Communications
Bus & Motor
STARLINK V2MD, Unknown motor
Mass
960 kg wet, ~910 kg dry
Launch date (UTC)
2024-09-05 (1 year ago)
Launch vehicle
FALCON 9
Launch site
Air Force Eastern Test Range (AFETR)
Object type
Payload
Rocket body
Debris
Shape & HBR
Box + 2 Pan, 18.1 m
Radar Cross Section
36.964 m², Large (>1 m²)

Expand to show TLE details & history
Last TLE update: 15 hours ago

TLE from 15 hours ago
0 STARLINK-11282
1 60992U 24158C   25306.40483168 -.00000000  00000-0  48599-5 0  9997
2 60992  53.1591 188.6977 0001571 102.3464 257.7730 15.69715897 67600
Epoch: 2025-11-02T09:42Z
TLE epoch observation values (Epoch: 2025-11-02T09:42:57.457Z)
Latitude
0.00001°
Longitude
1.03727°
Altitude
360.849 km
Speed
7.694 km/s
True Right ascension
12h 34m 47s
True Declination
0° 00' 00"
Sunlit
Object was in daylight at epoch
Visualization orbit readout
Latitude
Unknown
Longitude
Unknown
Altitude
Unknown
Speed
Unknown
Apparent Right ascension
Unknown
Apparent Declination
Unknown
Sunlit
N/A
Visualization observer readout
Local Sidereal Time
20:18:41
Azimuth
Unknown
Elevation
Unknown
Doppler factor
Unknown
Orbital elements
Apogee altitude
361.029 km
Perigee altitude
358.912 km
Semi-major axis
6,738.108 km
Eccentricity
0.00016
Inclination
53.1591°
RAAN
188.6977°
Arg. of periapsis
102.3464°
True anomaly
257.75541°
Mean anomaly
257.773°
Eccentric anomaly
257.7642°
Mean motion
3.92407 °/min
Orbital period
91.74 mins
BSTAR
0.0000048599
Loading maneuver chart data...
Computing Atmospheric mass density...
Loading historical data...
Loading historical data...
Loading historical data...
Loading historical data...
Loading historical data...
Loading historical data...
Loading historical data...

Documentation

Showing up to 5 results
|